Weather Service Report


109 
ASUS45 KBOI 260710
RWRID 

IDAHO REGIONAL WEATHER ROUNDUP
NATIONAL WEATHER SERVICE BOISE ID
100 AM MDT THU MAY 26 2016

NOTE: "FAIR" INDICATES FEW OR NO CLOUDS BELOW 12000 FEET
WITH NO SIGNIFICANT WEATHER AND/OR OBSTRUCTIONS TO VISIBILITY

IDZ012-014-260800-
SOUTHWEST IDAHO

  
CITY           SKY/WX    TMP DP  RH WIND       PRES   REMARKS
BOISE          CLEAR     54  44  69 SE7       29.99S                  
CALDWELL       CLEAR     53  43  68 W10       30.00R                  
MOUNTAIN HOME  MOCLDY    58  47  67 SE2       30.00S                  
$$

IDZ016-017-260800-
SOUTHCENTRAL IDAHO

  
CITY           SKY/WX    TMP DP  RH WIND       PRES   REMARKS
BURLEY         CLEAR     48  40  73 SW8       30.03S                  
JEROME         CLEAR     50  41  71 SE5       30.04R                  
TWIN FALLS     CLEAR     48  39  71 S14       30.04S                  
$$

IDZ019>023-260800-
SOUTHEAST IDAHO

  
CITY           SKY/WX    TMP DP  RH WIND       PRES   REMARKS
IDAHO FALLS    CLEAR     41  39  93 CALM      30.06R                  
POCATELLO      CLEAR     46  40  79 CALM      30.05S                  
REXBURG        CLOUDY    43  40  89 N3        30.06S                  
$$

IDZ006-010-011-018-031-032-260800-
CENTRAL IDAHO MOUNTAINS

  
CITY           SKY/WX    TMP DP  RH WIND       PRES   REMARKS
MCCALL         CLEAR     45  37  73 N5        30.07S                  
HAILEY         CLEAR     41  37  87 NW8       30.10R                  
STANLEY          N/A     33  30  88 S5        30.12R WCI  29          
SALMON         CLEAR     46  36  66 S3        30.03S                  
CHALLIS        CLEAR     45  35  68 SE3       30.06R                  
$$

IDZ002-004-006-007-026-260800-
NORTHERN IDAHO

  
CITY           SKY/WX    TMP DP  RH WIND       PRES   REMARKS
LEWISTON       CLEAR     59  47  64 SW3       30.01R                  
LOWELL           N/A     51  49  92 CALM      30.07R                  
COEUR D'ALENE  CLOUDY    61  48  63 MISG      29.98R                  
MULLAN PASS    MOCLDY    43  40  89 NW6       30.09R                  
$$
  

Return to Home page


Western Regional Climate Center, wrcc@dri.edu